Terug naar catalogus

BREEZE-M DEB

LostHEO
NORAD 38598·DEBRIS·🇷🇺 Russia

Gelanceerd Mar 14, 2008 vanaf Baikonur Cosmodrome

Loading…

Volgende Passages (komende 24 uur)

TLE

VerouderdSource: Space-Track

Epoch: Jul 28, 2022, 08:58 UTC

1 38598U 08011AV  22209.37380932  .00000703  00000-0  17938-1 0  9992
2 38598  49.0915  68.4114 6408688 218.5342 352.8776  3.09084655128843

Volg BREEZE-M DEB in realtime met AllMySat

Download on the App Store